sat.trackr.live / text

‹ back to catalog

STARLINK-31265

NORAD 59074 · 2024-041A

PAYLOAD ACTIVE UNKNOWN

§ Identity

Operator
Country
US
Launch date
2024-02-29
Launch site
AFETR
Launch vehicle
Mass (kg)
RCS (m²)

Purposes: comms

External: N2YO · Heavens-Above · Gunter

§ Orbital elements

Epoch: 2026-05-24T13:15:32.945760Z

Period
94.27 min
Inclination
42.9995°
Eccentricity
0.0001434
Mean motion
15.27584572 rev/d
Perigee alt
482.1 km
Apogee alt
484.0 km
Semi-major
6,861.2 km
B*
1.1786e-4
RAAN
242.2791°
Arg perigee
271.9114°
Mean anomaly
88.1573°
Rev number
12,587

§ Raw data

STARLINK-312651 59074U 24041A   26144.55246465  .00002983  00000+0  11786-3 0  99972 59074  42.9995 242.2791 0001434 271.9114  88.1573 15.27584572125870

JSON: /api/v1/satellites/59074 · /tle

For live sub-satellite position, see the globe view (requires WebGL).

§ Visibility from observer

Set your observer location to see the next 7 days of passes ≥ 10°. The values pass through the URL so the page stays shareable.

No JS? Fill the form by hand. The geolocation button needs JavaScript.